Theta_e
310 311 311 310 306 305 304 301 302 302 301 301 302 302 302 302 301 302 302 301 302 302 301 302 302 303 305 306 306 305 302 302 303 301 302 300 299 300 301 301 301 301 301 301 304
313 313 312 312 312 309 308 305 302 302 301 301 301 301 301 303 301 301 301 301 301 302 302 302 302 302 302 303 303 300 300 301 298 299 299 299 300 301 301 300 301 301 301 302 302
314 315 315 314 314 313 311 305 303 308 305 302 300 300 301 302 301 301 301 301 302 302 302 302 302 302 302 301 301 299 299 299 300 300 301 300 300 301 300 300 301 301 301 301 302
315 315 315 315 315 314 314 312 304 308 307 303 301 301 302 302 302 301 301 302 302 303 302 303 303 302 300 300 302 300 300 299 300 302 301 301 301 301 300 302 302 302 302 302 302
315 315 315 315 315 315 314 314 313 304 309 303 301 300 302 300 300 301 301 302 302 303 303 303 302 302 301 301 301 301 301 301 301 302 302 302 301 301 301 303 302 302 302 303 303
315 315 315 315 315 315 315 314 313 311 308 303 300 300 301 299 299 301 302 302 303 303 303 303 303 303 302 301 300 301 301 301 302 302 302 301 301 300 302 302 302 302 302 301 301
315 315 315 315 315 315 314 314 313 312 308 306 300 300 301 299 300 301 302 302 302 303 303 303 303 303 302 301 302 301 301 300 301 301 301 300 297 298 301 302 302 302 301 301 300
315 315 314 315 315 314 315 315 313 312 308 307 301 301 300 299 300 302 302 302 301 301 303 304 303 304 303 302 299 297 298 298 299 300 301 300 299 298 301 301 301 301 301 299 299
315 315 315 314 315 315 314 310 310 311 309 308 301 301 299 300 299 301 302 302 302 302 303 304 303 301 302 299 298 296 297 299 299 299 299 301 299 298 300 300 300 300 300 299 299
316 315 315 315 315 314 312 306 310 309 309 306 304 304 300 298 300 300 302 302 303 303 303 303 302 297 295 297 301 297 297 298 298 298 298 298 298 298 298 298 298 298 298 298 299
317 317 316 315 314 314 308 306 307 309 307 304 300 297 297 298 300 300 301 302 302 301 299 300 299 298 299 298 296 297 299 299 297 297 298 297 297 298 297 296 295 296 297 299 299
317 316 315 313 314 309 305 306 308 306 305 303 299 296 297 298 300 301 301 301 300 297 297 296 297 298 298 299 299 298 294 294 296 297 298 296 297 296 295 295 297 298 299 300 299
314 314 311 314 308 306 306 307 308 307 302 302 296 296 296 298 300 300 301 301 296 294 293 297 300 299 299 299 299 298 295 294 298 297 294 294 295 294 295 296 298 298 299 299 299
308 310 309 308 307 306 306 307 307 305 299 303 296 297 298 299 300 300 300 300 298 295 296 296 300 300 300 299 298 296 297 298 297 293 293 293 295 296 295 295 296 298 298 299 299
311 309 308 306 305 306 306 306 307 304 304 299 296 296 298 300 300 300 300 300 300 297 293 297 299 300 298 299 297 297 296 297 293 291 290 290 291 295 294 296 295 295 298 299 299
304 306 305 305 305 306 305 307 306 303 303 298 296 296 300 299 299 299 300 300 299 298 297 294 298 297 298 296 296 294 291 290 286 284 290 285 291 296 295 295 296 296 297 297 297
302 303 305 305 305 306 306 308 300 300 297 299 296 297 296 297 298 296 297 298 297 296 292 293 296 296 296 297 295 292 287 290 293 290 295 278 290 296 294 293 293 294 297 297 297
303 305 306 306 307 306 307 298 296 292 292 301 296 300 300 296 296 295 297 296 295 294 287 290 296 291 295 295 291 293 288 290 290 291 291 281 291 296 292 293 294 294 295 296 296
307 306 307 307 307 306 307 296 297 294 302 301 302 298 297 297 295 294 296 294 297 291 294 290 292 294 296 295 292 291 290 288 283 276 285 287 288 291 292 287 291 293 294 296 296
305 306 306 307 306 306 299 299 297 300 297 299 302 300 296 293 299 293 298 296 298 294 291 291 292 289 293 295 292 289 290 291 286 289 289 288 282 294 290 287 284 289 293 295 296
306 305 305 306 306 305 301 298 297 302 300 299 301 297 299 294 295 292 297 297 297 294 292 287 288 290 294 291 292 292 290 287 287 289 290 288 295 286 287 286 286 287 293 296 296
305 301 304 306 304 301 303 301 300 300 299 297 297 299 296 294 295 289 295 295 297 295 294 293 291 289 290 292 292 291 290 292 293 290 285 289 294 285 285 278 284 290 296 297 296
304 304 303 305 302 293 300 299 302 301 296 295 296 298 296 297 296 296 295 297 296 294 294 294 288 288 296 292 291 292 292 292 289 291 288 292 297 285 280 284 293 290 297 297 296
301 299 302 303 302 301 300 298 302 300 299 297 297 296 296 295 295 299 298 296 296 296 297 296 293 292 298 295 287 292 294 293 293 289 294 294 297 298 297 296 294 295 296 295 295
301 299 298 300 300 300 301 302 299 300 298 297 293 297 296 300 295 294 295 296 295 297 298 296 291 292 290 289 286 290 290 293 292 292 294 298 293 296 297 296 295 295 295 295 294
299 299 298 299 299 296 299 300 300 300 300 299 294 296 295 296 299 299 295 296 297 295 295 293 293 285 286 292 292 291 292 292 293 293 292 294 294 295 294 294 293 294 294 294 295
296 297 298 299 298 299 299 298 298 300 300 301 298 297 297 297 298 298 299 300 298 295 296 293 288 286 291 286 285 292 290 293 287 285 290 289 292 280 289 285 290 293 294 294 294
Wind_Speed
20 22 22 22 20 17 16 13 13 12 9 8 7 6 4 2 10 7 6 7 6 5 3 3 4 6 6 5 4 4 4 2 5 6 3 2 2 2 2 3 4 5 5 4 11
20 21 22 22 22 20 18 14 13 13 10 8 8 7 6 2 1 12 9 7 5 4 2 3 5 7 4 3 3 4 3 6 2 3 3 2 1 1 1 1 3 6 8 8 9
18 19 21 21 22 22 21 16 12 15 12 9 9 8 7 1 1 9 9 7 5 3 2 4 6 4 5 3 4 2 3 4 2 3 3 1 2 3 2 4 10 7 9 10 9
17 18 19 20 20 21 22 18 12 15 16 10 8 8 4 3 0 9 8 7 5 2 3 3 4 3 4 3 2 4 3 2 4 3 1 2 2 4 11 4 4 5 7 10 11
14 16 17 19 20 19 21 22 16 13 17 12 7 7 2 3 6 10 8 7 8 4 4 4 4 4 5 4 3 3 2 1 3 3 5 4 9 7 14 15 12 8 8 8 11
15 15 17 18 19 19 20 22 18 14 14 13 7 6 3 3 6 10 7 6 8 9 7 4 5 8 8 4 3 2 2 0 1 1 3 3 4 2 4 6 17 11 7 5 13
17 18 17 18 18 19 20 21 20 14 10 11 6 2 6 4 6 10 7 6 7 9 11 9 6 2 5 4 4 3 3 2 2 1 2 5 5 8 16 8 13 11 11 17 15
17 19 19 18 19 19 20 21 22 14 7 10 5 3 4 5 4 8 7 6 5 5 6 7 8 8 5 9 5 4 4 1 0 4 2 2 8 2 3 11 14 14 18 21 15
16 17 19 18 19 21 22 20 18 13 5 10 3 2 3 3 4 8 8 4 3 4 5 4 2 5 4 4 4 6 2 2 4 5 4 2 8 4 3 9 20 30 28 25 18
15 16 16 17 21 22 21 19 11 7 7 5 2 2 3 3 4 5 10 3 2 1 1 2 4 3 4 4 3 4 1 2 4 4 3 6 17 20 19 21 29 31 31 21 15
16 16 14 17 19 24 20 13 7 2 13 4 6 2 2 5 2 6 9 2 2 4 4 5 5 1 1 1 3 5 2 2 4 2 4 5 11 23 22 17 21 25 16 12 12
10 13 14 16 17 19 18 8 7 6 5 4 4 2 3 5 2 8 7 2 4 2 4 6 2 1 5 3 3 3 2 4 4 1 3 7 20 18 9 5 3 2 4 7 11
11 12 15 14 18 14 14 13 11 12 2 3 3 2 2 4 3 7 8 4 5 4 4 4 1 3 1 1 2 1 2 2 3 7 3 7 8 5 3 4 5 6 6 8 13
12 13 13 16 8 17 10 13 12 10 4 3 3 3 3 2 3 6 6 4 4 3 3 2 1 2 1 1 3 1 1 1 2 4 3 6 5 7 4 7 4 8 8 9 12
12 12 14 15 11 10 11 12 11 4 4 3 3 3 4 3 2 3 5 3 3 2 5 4 3 2 1 0 2 1 3 2 3 4 3 5 2 7 4 5 4 4 6 8 12
14 13 13 11 10 9 10 10 7 5 5 3 3 4 4 5 4 4 2 3 3 4 2 3 1 2 1 3 3 4 4 5 3 3 2 3 2 6 3 4 2 3 7 11 12
11 10 8 9 8 9 8 6 5 4 3 5 3 4 1 3 3 5 3 3 0 4 4 5 2 3 1 2 2 4 5 3 5 4 4 1 1 11 6 5 5 8 18 12 16
10 6 5 6 6 7 5 5 4 3 5 2 2 1 2 5 3 5 2 2 2 4 3 3 5 2 4 2 4 2 5 4 5 2 5 2 6 6 7 6 11 17 18 7 16
5 5 5 6 4 6 2 3 7 5 1 2 1 4 4 1 2 3 0 2 2 4 5 3 4 1 4 2 3 2 1 2 6 2 3 2 8 12 5 6 6 6 7 3 24
4 6 8 5 2 2 4 3 2 2 1 1 2 2 2 3 2 4 1 3 3 1 1 4 3 1 2 2 6 4 3 4 3 2 5 5 6 6 5 5 4 4 7 12 32
2 5 3 2 3 0 1 5 4 4 2 1 2 2 5 2 3 2 3 2 3 3 4 4 3 4 1 4 7 1 1 4 3 3 4 3 7 8 8 6 8 11 15 27 37
1 2 2 4 2 1 2 3 2 4 1 2 2 5 5 3 3 2 5 5 6 7 5 4 4 3 7 0 2 3 5 4 4 5 2 1 9 0 7 5 9 17 29 43 39
2 5 3 6 2 2 1 2 4 3 2 1 2 4 2 3 1 4 3 0 9 6 5 5 1 3 6 3 3 3 5 3 3 2 7 4 8 3 3 5 17 22 37 41 37
2 2 2 6 5 3 3 5 5 4 3 4 3 3 2 2 3 2 3 2 7 5 4 7 4 6 6 5 4 3 4 7 5 3 5 14 24 21 24 18 18 28 34 37 31
3 4 3 2 4 7 5 1 3 3 5 5 3 6 6 4 2 5 4 2 4 6 5 3 5 3 5 6 5 6 7 11 12 10 8 27 10 23 22 19 25 32 37 34 31
2 3 3 5 7 3 7 6 11 10 7 5 4 4 7 6 7 6 5 4 6 3 6 4 3 2 5 6 5 6 14 19 18 14 15 22 26 27 39 31 27 28 31 30 30
6 12 11 5 3 3 8 5 5 10 12 24 15 5 7 16 26 19 11 8 6 7 8 6 5 2 5 4 6 8 11 14 6 5 9 7 15 3 10 9 19 23 22 25 22
Wind_Direction
47 43 41 39 36 31 24 21 23 18 25 30 31 28 32 20 36 28 25 17 12 13 43 95 116 127 138 123 107 126 69 192 206 161 172 180 165 185 233 215 198 193 191 198 186
44 39 36 36 33 29 20 15 18 21 17 14 14 14 15 346 4 25 21 8 358 7 60 106 129 135 98 90 64 88 125 212 165 151 152 163 201 251 278 285 224 198 208 207 211
40 37 33 29 30 27 23 20 22 16 2 355 355 350 349 354 88 10 6 1 356 4 110 118 126 132 86 78 31 85 155 168 178 138 122 132 270 230 178 254 224 196 213 217 227
34 31 28 25 21 21 20 16 5 2 4 354 357 0 8 36 146 357 3 9 16 54 134 141 138 110 83 94 71 99 88 115 161 174 138 206 230 259 220 224 172 209 206 228 245
25 23 21 16 15 14 12 9 1 351 359 356 344 353 1 62 30 7 12 25 32 87 112 122 135 117 111 112 92 78 150 122 163 217 261 257 247 244 248 239 230 235 225 234 253
11 8 8 8 5 7 2 0 355 353 352 357 8 25 36 74 5 9 23 39 59 67 78 90 98 106 101 73 64 100 108 63 134 202 252 251 261 223 249 212 209 203 202 276 276
4 360 359 360 359 354 354 354 353 347 349 354 4 345 51 76 30 20 31 47 66 67 75 86 97 112 113 103 108 83 93 103 60 280 246 304 257 232 246 203 190 208 246 296 294
352 351 352 352 353 353 344 339 342 339 338 354 355 14 92 50 43 27 28 42 59 61 70 83 83 82 62 114 40 52 49 80 155 349 315 36 274 279 197 206 230 252 281 293 282
345 340 339 339 345 351 346 340 330 330 325 348 5 53 84 28 16 19 20 34 52 69 71 73 71 86 94 82 28 18 201 286 315 35 331 64 282 194 244 236 265 278 286 288 278
323 323 335 337 339 345 346 342 327 330 349 351 31 85 64 342 355 2 6 23 52 111 49 52 52 73 39 67 229 228 45 252 252 330 1 279 268 282 274 261 268 281 287 279 256
311 317 326 329 336 343 353 354 351 325 349 32 337 317 323 343 11 1 3 32 47 63 43 19 63 70 185 40 91 122 149 251 260 6 307 256 278 284 295 263 265 277 275 260 233
319 302 319 328 333 345 353 39 34 326 312 0 343 336 347 358 11 12 13 58 57 83 340 21 101 137 118 86 92 71 115 275 283 210 320 330 297 292 296 275 267 311 266 239 208
314 322 333 337 337 350 4 21 4 349 321 354 15 13 24 7 45 8 17 44 74 59 31 134 131 140 142 114 86 201 175 266 270 329 69 320 295 322 304 304 280 261 256 225 216
331 327 335 334 346 347 358 356 350 347 67 320 350 14 357 27 41 22 24 42 42 150 139 143 318 160 74 216 119 317 168 59 14 41 278 22 279 301 318 306 273 264 252 244 240
313 322 331 340 345 354 345 339 337 5 3 307 346 346 358 53 342 12 21 36 106 141 89 253 154 146 112 314 121 145 47 63 75 97 37 345 59 271 348 323 311 263 258 272 272
309 315 322 331 341 347 343 336 335 40 264 339 316 341 21 24 16 346 21 51 98 119 79 187 10 52 72 58 58 117 72 44 61 93 11 251 137 277 218 203 278 243 302 312 307
314 318 327 335 343 345 341 342 31 123 341 299 329 21 133 326 3 28 16 23 61 38 352 349 349 336 41 96 57 75 53 330 351 6 232 268 310 247 269 251 225 278 299 329 334
312 324 340 343 350 345 346 51 104 237 235 324 317 351 36 1 18 337 10 352 61 87 96 110 326 28 352 89 176 75 144 152 234 271 277 14 238 249 218 208 243 263 274 318 357
331 327 331 324 338 358 334 70 204 205 236 312 10 60 324 299 188 28 285 210 191 173 155 125 286 334 30 64 88 236 53 157 100 76 26 253 283 287 259 273 244 252 270 280 350
344 331 293 292 301 25 68 266 242 252 329 15 173 122 222 272 2 58 331 211 159 176 176 199 2 267 242 89 42 137 140 48 9 342 302 285 276 240 292 266 303 281 282 291 330
292 307 321 340 139 223 179 236 295 300 289 221 243 259 225 233 180 239 235 247 150 144 113 136 98 289 59 199 179 85 8 47 124 130 190 293 261 215 234 229 265 290 310 317 325
257 341 337 150 108 117 222 157 330 307 265 266 251 208 192 175 212 257 234 220 182 162 166 193 140 219 221 134 137 158 186 163 134 242 221 178 270 214 240 245 264 282 307 319 323
262 273 268 184 228 256 344 251 215 220 248 218 262 226 145 207 270 218 230 232 181 170 167 182 313 358 335 16 6 212 194 167 126 99 200 168 265 270 247 293 281 281 309 315 322
313 320 270 215 211 194 246 254 252 237 230 224 251 146 180 258 203 262 255 194 193 209 188 168 179 188 207 208 135 197 190 209 167 153 233 230 273 282 287 294 295 303 309 315 318
214 244 246 263 238 200 196 161 204 260 206 202 309 225 178 232 205 224 228 205 208 219 182 169 216 225 256 239 194 226 204 214 204 213 213 272 237 272 285 291 293 298 303 311 320
256 278 262 269 259 199 216 212 232 237 189 201 217 228 196 219 208 203 168 196 217 174 165 183 239 113 285 274 268 265 243 234 237 236 250 259 277 270 274 284 280 292 299 304 319
257 267 280 256 180 211 238 222 238 233 247 242 222 200 207 231 247 252 241 218 214 175 190 165 152 122 257 337 336 293 236 218 185 208 194 186 233 330 301 285 286 301 303 307 322